Hourly Data Report for July 08, 2021

RANKIN INLET A
NUNAVUT
Current Station Operator: NAVCAN

62°48'38.000" N
92°06'53.000" W
32.30 m
2303405
71083
YRT

Download Data

Hourly Data (July 2021)
Hourly Data Report for July 8, 2021
TIME
LST
Temp Definition
°C
Dew Point Definition
°C
Rel Hum Definition
%
Precip. Amount Definition
mm

Wind Dir Definition
10's deg

Wind Spd Definition
km/h
Visibility Definition
km
Stn Press Definition
kPa
Hmdx Definition


Wind Chill Definition


Weather Definition


00:00 9.0 7.2 89   34 19 24.1 100.16     Mainly Clear
01:00 8.6 7.2 91   34 13 24.1 100.17     LegendNANA
02:00 8.3 6.2 86   34 19 24.1 100.20     LegendNANA
03:00 8.0 6.6 91   34 17 24.1 100.23     Mainly Clear
04:00 8.1 6.9 92   35 14 24.1 100.26     LegendNANA
05:00 9.1 7.5 89   35 16 24.1 100.29     LegendNANA
06:00 10.5 7.8 83   34 17 24.1 100.32     Mainly Clear
07:00 12.3 7.2 71   33 16 24.1 100.36     LegendNANA
08:00 14.0 7.1 63   33 15 24.1 100.37     LegendNANA
09:00 14.8 5.6 54   34 21 24.1 100.35     Mainly Clear
10:00 15.7 4.9 48   34 29 24.1 100.34     LegendNANA
11:00 16.0 5.5 49   34 21 24.1 100.36     LegendNANA
12:00 16.4 5.3 47   32 30 24.1 100.38     Mainly Clear
13:00 16.6 1.6 36   35 34 24.1 100.35     LegendNANA
14:00 17.0 1.1 34   33 36 24.1 100.40     LegendNANA
15:00 17.5 0.1 31   33 33 48.3 100.42     Mainly Clear
16:00 17.6 0.6 31   34 32 48.3 100.43     LegendNANA
17:00 17.6 -1.2 28   33 27 24.1 100.46     LegendNANA
18:00 17.5 -0.5 29   33 22 24.1 100.49     Mainly Clear
19:00 17.0 1.4 35   34 20 24.1 100.49     LegendNANA
20:00 15.8 4.5 47   34 14 24.1 100.49     LegendNANA
21:00 13.4 4.2 54   33 10 24.1 100.50     Clear
22:00 11.8 3.5 57   32 12 24.1 100.54     LegendNANA
23:00 11.6 3.9 59   30 17 24.1 100.57     LegendNANA

Notes on Data Quality.

Legend

  • E = Estimated
  • M = Missing
  • NA = Not Available*
  • [empty] = Indicates an unobserved value
Date modified: